{"data":{"norad_id":60464,"epoch":"2026-05-25T02:24:07.624800Z","epoch_age_seconds":73152,"freshness":"FRESH","line1":"1 60464U 24148G   26145.10008825  .00006558  00000+0  22468-3 0  9999","line2":"2 60464  35.0043 295.5101 0007025 293.2053  66.7924 15.29482591 98746","mean_motion":15.29482591,"eccentricity":0.0007025,"inclination_deg":35.0043,"raan_deg":295.5101,"arg_perigee_deg":293.2053,"mean_anomaly_deg":66.7924,"bstar":0.00022468,"rev_number":9874,"period_min":94.149486138218,"perigee_km":472.54197540743,"apogee_km":482.17394582709,"semimajor_km":6855.4949606173,"source":"CELESTRAK","updated_at":"2026-05-25T13:38:02.086298Z"}}